LiveATC.Net - Listen to live air traffic control over the Internet!


ICAO: KGRK  IATA: GRK   Airport: Robert Gray Army Airfield
City: Fort Hood (Killeen)   State/Province: Texas
Country: United States   Continent: North America
KGRK METAR Weather: KGRK 082058Z AUTO 13015G18KT 10SM SCT075 36/16 A3003 RMK AO2 SLP156 T03610159 57017
KGRK Flight Activity (FlightAware)
KGRK Airport Info   (iFlightPlanner)
KGRK VFR Sectional Chart   (iFlightPlanner) 
KGRK IFR Low Chart   (iFlightPlanner) 

KGRK Twr/App
Feed Status: DOWN
Last heard on: 2019-11-24 15:09:39 (258 days 6 hours 12 minutes ago)
Archive Access: KGRK Twr/App
FacilityFrequency
Gray Tower120.750

NOTICE

Unauthorized use prohibited. See LiveATC.net Terms of Service


Airport/ARTCC Code
Frequency Search
(e.g., 124.400, 128.75)
Site-wide search
 


Browse Feeds
Top 50 Feeds
Coverage Map
Bad Weather Areas

LiveATC FAQ
Offer LiveATC feed
Contact LiveATC.net
Press Inquiries

LiveATC on iPhone
LiveATC on Android

Windows Phone
Windows 8/10

LiveATC Mobile
(Mobile browser)

ATC Audio Archives
Interesting Recordings

LiveATC Forums


Home Page
About LiveATC.net
Make a Donation
Terms of Use
Privacy Policy

Canadian Air Freqs

AIRMETs/SIGMETs

FAA Airport Status
Nat'l Airspace Status
Arrival Demand Charts


Server Software By:
Icecast.org
Liquidsoap